Time,TemperatureF,DewpointF,PressureIn,WindDirection,WindDirectionDegrees,WindSpeedMPH,WindSpeedGustMPH,Humidity,HourlyPrecipIn,Conditions,Clouds,dailyrainin,SoftwareType,DateUTC
2016-08-25 00:03:00,75.4,74.2,29.95,West,265,0.0,0.0,96,0.00,,,0.01,WUHU216DAVISVP2,2016-08-25 04:03:00,
2016-08-25 00:08:00,75.4,74.2,29.94,West,265,0.0,0.0,96,0.00,,,0.00,WUHU216DAVISVP2,2016-08-25 04:08:00,
2016-08-25 00:13:00,75.4,74.2,29.94,West,265,0.0,0.0,96,0.00,,,0.00,WUHU216DAVISVP2,2016-08-25 04:13:00,
2016-08-25 00:18:00,75.3,73.7,29.94,West,265,0.0,0.0,95,0.00,,,0.00,WUHU216DAVISVP2,2016-08-25 04:18:00,
2016-08-25 00:23:00,75.3,73.7,29.95,West,265,0.0,0.0,95,0.00,,,0.00,WUHU216DAVISVP2,2016-08-25 04:23:00,
2016-08-25 00:28:00,75.3,73.7,29.94,West,265,0.0,0.0,95,0.00,,,0.00,WUHU216DAVISVP2,2016-08-25 04:28:00,
2016-08-25 00:33:00,75.3,74.1,29.94,West,265,0.0,0.0,96,0.00,,,0.00,WUHU216DAVISVP2,2016-08-25 04:33:00,
2016-08-25 00:38:00,75.3,74.1,29.94,West,265,0.0,0.0,96,0.00,,,0.00,WUHU216DAVISVP2,2016-08-25 04:38:00,
2016-08-25 00:43:00,75.3,74.1,29.94,West,265,0.0,0.0,96,0.00,,,0.00,WUHU216DAVISVP2,2016-08-25 04:43:00,
2016-08-25 00:48:00,75.3,74.1,29.95,West,265,0.0,0.0,96,0.00,,,0.00,WUHU216DAVISVP2,2016-08-25 04:48:00,
2016-08-25 00:53:00,75.3,74.1,29.94,West,265,0.0,0.0,96,0.00,,,0.00,WUHU216DAVISVP2,2016-08-25 04:53:00,
2016-08-25 00:58:00,75.4,74.2,29.94,WNW,286,0.0,0.0,96,0.00,,,0.00,WUHU216DAVISVP2,2016-08-25 04:58:00,
2016-08-25 01:03:00,75.3,73.7,29.94,NW,309,0.0,0.0,95,0.00,,,0.00,WUHU216DAVISVP2,2016-08-25 05:03:00,
2016-08-25 01:08:00,75.4,73.8,29.95,WNW,290,0.0,1.0,95,0.00,,,0.00,WUHU216DAVISVP2,2016-08-25 05:08:00,
2016-08-25 01:13:00,75.4,73.8,29.95,WNW,292,0.0,1.0,95,0.00,,,0.00,WUHU216DAVISVP2,2016-08-25 05:13:00,
2016-08-25 01:18:00,75.5,73.9,29.95,WSW,243,0.0,4.0,95,0.00,,,0.00,WUHU216DAVISVP2,2016-08-25 05:18:00,
2016-08-25 01:23:00,75.5,73.9,29.95,WSW,250,0.0,4.0,95,0.00,,,0.00,WUHU216DAVISVP2,2016-08-25 05:23:00,
2016-08-25 01:28:00,75.6,74.0,29.95,West,261,0.0,5.0,95,0.00,,,0.00,WUHU216DAVISVP2,2016-08-25 05:28:00,
2016-08-25 01:33:00,75.6,74.0,29.95,WSW,251,0.0,5.0,95,0.00,,,0.00,WUHU216DAVISVP2,2016-08-25 05:33:00,
2016-08-25 01:43:00,75.7,74.1,29.95,WSW,238,0.0,0.0,95,0.00,,,0.00,WUHU216DAVISVP2,2016-08-25 05:43:00,
2016-08-25 01:48:00,75.7,74.1,29.95,WSW,238,0.0,1.0,95,0.00,,,0.00,WUHU216DAVISVP2,2016-08-25 05:48:00,
2016-08-25 01:53:00,75.7,74.2,29.95,WSW,238,0.0,1.0,95,0.00,,,0.00,WUHU216DAVISVP2,2016-08-25 05:53:00,
2016-08-25 01:58:00,75.8,73.9,29.95,WSW,256,0.0,1.0,94,0.00,,,0.00,WUHU216DAVISVP2,2016-08-25 05:58:00,
2016-08-25 02:03:00,75.7,73.8,29.95,SSW,204,0.0,4.0,94,0.00,,,0.00,WUHU216DAVISVP2,2016-08-25 06:03:00,
2016-08-25 02:08:00,75.8,73.9,29.94,SW,222,0.0,4.0,94,0.00,,,0.00,WUHU216DAVISVP2,2016-08-25 06:08:00,
2016-08-25 02:13:00,75.7,73.8,29.94,West,275,0.0,3.0,94,0.00,,,0.00,WUHU216DAVISVP2,2016-08-25 06:13:00,
2016-08-25 02:18:00,75.7,73.5,29.94,West,275,0.0,3.0,93,0.00,,,0.00,WUHU216DAVISVP2,2016-08-25 06:18:00,
2016-08-25 02:23:00,75.6,73.4,29.94,WSW,246,0.0,4.0,93,0.00,,,0.00,WUHU216DAVISVP2,2016-08-25 06:23:00,
2016-08-25 02:28:00,75.6,73.1,29.94,SW,225,0.0,4.0,92,0.00,,,0.00,WUHU216DAVISVP2,2016-08-25 06:28:00,
2016-08-25 02:33:00,75.6,73.1,29.94,WSW,247,0.0,3.0,92,0.00,,,0.00,WUHU216DAVISVP2,2016-08-25 06:33:00,
2016-08-25 02:38:00,75.7,73.2,29.95,WSW,247,0.0,3.0,92,0.00,,,0.00,WUHU216DAVISVP2,2016-08-25 06:38:00,
2016-08-25 02:43:00,75.8,73.3,29.95,West,281,0.0,1.0,92,0.00,,,0.00,WUHU216DAVISVP2,2016-08-25 06:43:00,
2016-08-25 02:48:00,76.0,73.5,29.95,WSW,256,0.0,2.0,92,0.00,,,0.00,WUHU216DAVISVP2,2016-08-25 06:48:00,
2016-08-25 02:53:00,76.1,73.6,29.95,WSW,255,0.0,2.0,92,0.00,,,0.00,WUHU216DAVISVP2,2016-08-25 06:53:00,
2016-08-25 02:58:00,76.1,73.3,29.95,WSW,252,0.0,1.0,91,0.00,,,0.00,WUHU216DAVISVP2,2016-08-25 06:58:00,
2016-08-25 03:03:00,76.2,73.7,29.95,WSW,254,0.0,1.0,92,0.00,,,0.00,WUHU216DAVISVP2,2016-08-25 07:03:00,
2016-08-25 03:08:00,76.3,73.8,29.96,WSW,254,0.0,1.0,92,0.00,,,0.00,WUHU216DAVISVP2,2016-08-25 07:08:00,
2016-08-25 03:18:00,76.2,73.4,29.96,West,275,2.0,2.0,91,0.00,,,0.00,WUHU216DAVISVP2,2016-08-25 07:18:00,
2016-08-25 03:23:00,76.3,73.5,29.96,West,262,0.0,2.0,91,0.00,,,0.00,WUHU216DAVISVP2,2016-08-25 07:23:00,
2016-08-25 03:28:00,76.2,73.4,29.96,SW,234,0.0,3.0,91,0.00,,,0.00,WUHU216DAVISVP2,2016-08-25 07:28:00,
2016-08-25 03:33:00,76.2,73.4,29.96,SW,234,0.0,3.0,91,0.00,,,0.00,WUHU216DAVISVP2,2016-08-25 07:33:00,
2016-08-25 03:38:00,76.1,73.6,29.96,WNW,295,0.0,4.0,92,0.00,,,0.00,WUHU216DAVISVP2,2016-08-25 07:38:00,
2016-08-25 03:43:00,76.0,73.5,29.96,WNW,298,0.0,4.0,92,0.01,,,0.01,WUHU216DAVISVP2,2016-08-25 07:43:00,
2016-08-25 03:48:00,75.8,73.6,29.95,WSW,248,0.0,1.0,93,0.02,,,0.02,WUHU216DAVISVP2,2016-08-25 07:48:00,
2016-08-25 03:53:00,75.6,73.4,29.95,WSW,255,0.0,1.0,93,0.02,,,0.02,WUHU216DAVISVP2,2016-08-25 07:53:00,
2016-08-25 03:58:00,75.4,73.2,29.95,NE,42,0.0,3.0,93,0.02,,,0.02,WUHU216DAVISVP2,2016-08-25 07:58:00,
2016-08-25 04:03:00,75.3,73.4,29.95,NE,35,0.0,3.0,94,0.03,,,0.03,WUHU216DAVISVP2,2016-08-25 08:03:00,
2016-08-25 04:08:00,75.2,73.6,29.95,NNE,24,0.0,1.0,95,0.04,,,0.04,WUHU216DAVISVP2,2016-08-25 08:08:00,
2016-08-25 04:13:00,75.1,73.5,29.95,West,279,4.0,4.0,95,0.04,,,0.04,WUHU216DAVISVP2,2016-08-25 08:13:00,
2016-08-25 04:18:00,74.9,73.3,29.95,WSW,252,0.0,4.0,95,0.04,,,0.04,WUHU216DAVISVP2,2016-08-25 08:18:00,
2016-08-25 04:23:00,74.8,73.2,29.95,WSW,254,0.0,4.0,95,0.04,,,0.04,WUHU216DAVISVP2,2016-08-25 08:23:00,
2016-08-25 04:28:00,74.6,73.0,29.95,WSW,254,0.0,4.0,95,0.04,,,0.04,WUHU216DAVISVP2,2016-08-25 08:28:00,
2016-08-25 04:33:00,74.5,72.9,29.96,NNW,334,0.0,4.0,95,0.04,,,0.04,WUHU216DAVISVP2,2016-08-25 08:33:00,
2016-08-25 04:38:00,74.4,73.2,29.95,NNW,335,0.0,0.0,96,0.04,,,0.04,WUHU216DAVISVP2,2016-08-25 08:38:00,
2016-08-25 04:43:00,74.3,73.1,29.95,SW,231,0.0,5.0,96,0.03,,,0.04,WUHU216DAVISVP2,2016-08-25 08:43:00,
2016-08-25 04:48:00,74.3,73.1,29.95,SW,218,0.0,5.0,96,0.02,,,0.04,WUHU216DAVISVP2,2016-08-25 08:48:00,
2016-08-25 04:53:00,74.4,73.2,29.95,SW,218,0.0,0.0,96,0.02,,,0.04,WUHU216DAVISVP2,2016-08-25 08:53:00,
2016-08-25 04:58:00,74.3,73.1,29.95,SSW,213,0.0,1.0,96,0.02,,,0.04,WUHU216DAVISVP2,2016-08-25 08:58:00,
2016-08-25 05:03:00,74.2,73.0,29.95,SW,221,0.0,1.0,96,0.01,,,0.04,WUHU216DAVISVP2,2016-08-25 09:03:00,
2016-08-25 05:08:00,74.2,73.0,29.95,SW,221,0.0,0.0,96,0.00,,,0.04,WUHU216DAVISVP2,2016-08-25 09:08:00,
2016-08-25 05:13:00,74.0,72.8,29.95,SW,221,0.0,0.0,96,0.00,,,0.04,WUHU216DAVISVP2,2016-08-25 09:13:00,
2016-08-25 05:18:00,73.9,72.7,29.95,SW,231,0.0,2.0,96,0.00,,,0.04,WUHU216DAVISVP2,2016-08-25 09:18:00,
2016-08-25 05:23:00,73.9,72.7,29.95,WSW,238,0.0,2.0,96,0.00,,,0.04,WUHU216DAVISVP2,2016-08-25 09:23:00,
2016-08-25 05:28:00,74.2,73.3,29.96,NW,309,1.0,4.0,97,0.00,,,0.04,WUHU216DAVISVP2,2016-08-25 09:28:00,
2016-08-25 05:33:00,74.4,73.5,29.98,West,263,0.0,4.0,97,0.04,,,0.09,WUHU216DAVISVP2,2016-08-25 09:33:00,
2016-08-25 05:38:00,74.3,73.4,29.98,West,267,0.0,4.0,97,0.16,,,0.20,WUHU216DAVISVP2,2016-08-25 09:38:00,
2016-08-25 05:43:00,74.2,73.3,29.96,West,271,0.0,1.0,97,0.19,,,0.23,WUHU216DAVISVP2,2016-08-25 09:43:00,
2016-08-25 05:48:00,73.9,73.0,29.96,SSW,196,0.0,1.0,97,0.20,,,0.24,WUHU216DAVISVP2,2016-08-25 09:48:00,
2016-08-25 05:53:00,73.6,72.4,29.96,SSW,196,0.0,1.0,96,0.20,,,0.24,WUHU216DAVISVP2,2016-08-25 09:53:00,
2016-08-25 06:03:00,73.2,72.0,29.96,SSW,196,0.0,0.0,96,0.20,,,0.24,WUHU216DAVISVP2,2016-08-25 10:03:00,
2016-08-25 06:08:00,73.1,72.2,29.96,South,174,0.0,1.0,97,0.20,,,0.24,WUHU216DAVISVP2,2016-08-25 10:08:00,
2016-08-25 06:13:00,72.9,71.7,29.96,SSW,194,0.0,1.0,96,0.20,,,0.24,WUHU216DAVISVP2,2016-08-25 10:13:00,
2016-08-25 06:18:00,72.8,71.9,29.97,SSW,201,0.0,0.0,97,0.20,,,0.24,WUHU216DAVISVP2,2016-08-25 10:18:00,
2016-08-25 06:23:00,72.6,71.7,29.96,SSW,201,0.0,0.0,97,0.20,,,0.24,WUHU216DAVISVP2,2016-08-25 10:23:00,
2016-08-25 06:28:00,72.3,71.4,29.96,SW,224,0.0,3.0,97,0.20,,,0.24,WUHU216DAVISVP2,2016-08-25 10:28:00,
2016-08-25 06:33:00,72.2,71.3,29.95,SW,224,0.0,3.0,97,0.15,,,0.24,WUHU216DAVISVP2,2016-08-25 10:33:00,
2016-08-25 06:38:00,72.1,71.2,29.95,SW,224,0.0,0.0,97,0.04,,,0.24,WUHU216DAVISVP2,2016-08-25 10:38:00,
2016-08-25 06:43:00,71.9,71.0,29.96,SW,224,0.0,0.0,97,0.01,,,0.24,WUHU216DAVISVP2,2016-08-25 10:43:00,
2016-08-25 06:48:00,71.7,70.8,29.96,SW,224,0.0,0.0,97,0.00,,,0.24,WUHU216DAVISVP2,2016-08-25 10:48:00,
2016-08-25 06:53:00,71.5,70.6,29.96,SW,226,0.0,0.0,97,0.00,,,0.24,WUHU216DAVISVP2,2016-08-25 10:53:00,
2016-08-25 06:58:00,71.4,70.5,29.96,West,275,0.0,3.0,97,0.00,,,0.24,WUHU216DAVISVP2,2016-08-25 10:58:00,
2016-08-25 07:03:00,71.5,70.6,29.95,NNE,12,0.0,4.0,97,0.00,,,0.24,WUHU216DAVISVP2,2016-08-25 11:03:00,
2016-08-25 07:08:00,71.5,70.6,29.95,WNW,282,0.0,4.0,97,0.00,,,0.24,WUHU216DAVISVP2,2016-08-25 11:08:00,
2016-08-25 07:13:00,71.6,70.7,29.95,WNW,301,0.0,3.0,97,0.00,,,0.24,WUHU216DAVISVP2,2016-08-25 11:13:00,
2016-08-25 07:17:00,71.7,71.1,29.95,WNW,301,0.0,0.0,98,0.00,,,0.24,WUHU216DAVISVP2,2016-08-25 11:17:00,
2016-08-25 07:22:00,71.7,71.1,29.94,SSW,205,0.0,2.0,98,0.00,,,0.24,WUHU216DAVISVP2,2016-08-25 11:22:00,
2016-08-25 07:27:00,71.7,71.1,29.94,SSW,205,0.0,2.0,98,0.00,,,0.24,WUHU216DAVISVP2,2016-08-25 11:27:00,
2016-08-25 07:32:00,71.7,71.1,29.94,SSW,205,0.0,0.0,98,0.00,,,0.24,WUHU216DAVISVP2,2016-08-25 11:32:00,
2016-08-25 07:37:00,71.6,71.0,29.94,SSW,205,0.0,0.0,98,0.00,,,0.24,WUHU216DAVISVP2,2016-08-25 11:37:00,
2016-08-25 07:42:00,71.6,71.0,29.94,SSW,208,0.0,1.0,98,0.00,,,0.24,WUHU216DAVISVP2,2016-08-25 11:42:00,
2016-08-25 07:52:00,71.5,70.9,29.93,SSW,208,0.0,0.0,98,0.00,,,0.24,WUHU216DAVISVP2,2016-08-25 11:52:00,
2016-08-25 07:57:00,71.5,70.9,29.94,SSW,208,0.0,0.0,98,0.00,,,0.24,WUHU216DAVISVP2,2016-08-25 11:57:00,
2016-08-25 08:02:00,71.6,71.0,29.95,SSW,208,0.0,0.0,98,0.00,,,0.24,WUHU216DAVISVP2,2016-08-25 12:02:00,
2016-08-25 08:07:00,71.6,71.0,29.96,SSW,208,0.0,0.0,98,0.00,,,0.24,WUHU216DAVISVP2,2016-08-25 12:07:00,
2016-08-25 08:12:00,71.8,71.5,29.96,SW,219,0.0,5.0,99,0.00,,,0.24,WUHU216DAVISVP2,2016-08-25 12:12:00,
2016-08-25 08:17:00,72.3,72.0,29.97,West,276,0.0,5.0,99,0.00,,,0.24,WUHU216DAVISVP2,2016-08-25 12:17:00,
2016-08-25 08:22:00,72.6,72.3,29.97,West,269,0.0,5.0,99,0.00,,,0.24,WUHU216DAVISVP2,2016-08-25 12:22:00,
2016-08-25 08:27:00,72.9,72.3,29.97,NNW,327,0.0,4.0,98,0.00,,,0.24,WUHU216DAVISVP2,2016-08-25 12:27:00,
2016-08-25 08:32:00,73.0,72.4,29.97,NW,306,0.0,4.0,98,0.00,,,0.24,WUHU216DAVISVP2,2016-08-25 12:32:00,
2016-08-25 08:37:00,73.1,72.5,29.97,WSW,251,0.0,4.0,98,0.00,,,0.24,WUHU216DAVISVP2,2016-08-25 12:37:00,
2016-08-25 08:42:00,73.1,72.5,29.97,WNW,290,0.0,4.0,98,0.00,,,0.24,WUHU216DAVISVP2,2016-08-25 12:42:00,
2016-08-25 08:47:00,73.2,72.3,29.97,WSW,252,0.0,3.0,97,0.00,,,0.24,WUHU216DAVISVP2,2016-08-25 12:47:00,
2016-08-25 08:52:00,73.3,72.4,29.97,West,278,0.0,4.0,97,0.00,,,0.24,WUHU216DAVISVP2,2016-08-25 12:52:00,
2016-08-25 08:57:00,73.4,72.5,29.97,WSW,241,0.0,5.0,97,0.00,,,0.24,WUHU216DAVISVP2,2016-08-25 12:57:00,
2016-08-25 09:02:00,73.4,72.2,29.96,WSW,254,0.0,5.0,96,0.00,,,0.24,WUHU216DAVISVP2,2016-08-25 13:02:00,
2016-08-25 09:07:00,73.4,72.2,29.96,West,273,0.0,3.0,96,0.00,,,0.24,WUHU216DAVISVP2,2016-08-25 13:07:00,
2016-08-25 09:12:00,73.6,72.4,29.96,SSW,213,0.0,6.0,96,0.00,,,0.24,WUHU216DAVISVP2,2016-08-25 13:12:00,
2016-08-25 09:17:00,73.8,72.6,29.96,SW,223,0.0,6.0,96,0.00,,,0.24,WUHU216DAVISVP2,2016-08-25 13:17:00,
2016-08-25 09:22:00,73.9,72.4,29.96,NNW,327,0.0,3.0,95,0.00,,,0.24,WUHU216DAVISVP2,2016-08-25 13:22:00,
2016-08-25 09:27:00,73.9,72.4,29.96,West,281,0.0,3.0,95,0.00,,,0.24,WUHU216DAVISVP2,2016-08-25 13:27:00,
2016-08-25 09:32:00,74.0,72.5,29.96,West,280,0.0,9.0,95,0.00,,,0.24,WUHU216DAVISVP2,2016-08-25 13:32:00,
2016-08-25 09:37:00,74.0,72.5,29.97,SW,232,4.0,9.0,95,0.00,,,0.24,WUHU216DAVISVP2,2016-08-25 13:37:00,
2016-08-25 09:42:00,74.0,72.5,29.96,WNW,291,0.0,6.0,95,0.00,,,0.24,WUHU216DAVISVP2,2016-08-25 13:42:00,
2016-08-25 09:47:00,74.1,72.6,29.96,WSW,250,0.0,4.0,95,0.00,,,0.24,WUHU216DAVISVP2,2016-08-25 13:47:00,
2016-08-25 09:52:00,74.1,72.3,29.96,West,271,0.0,4.0,94,0.00,,,0.24,WUHU216DAVISVP2,2016-08-25 13:52:00,
2016-08-25 09:57:00,74.1,72.3,29.96,West,272,0.0,3.0,94,0.00,,,0.24,WUHU216DAVISVP2,2016-08-25 13:57:00,
2016-08-25 10:02:00,74.1,72.3,29.96,WSW,243,0.0,4.0,94,0.00,,,0.24,WUHU216DAVISVP2,2016-08-25 14:02:00,
2016-08-25 10:07:00,74.0,71.8,29.96,WNW,286,0.0,5.0,93,0.00,,,0.24,WUHU216DAVISVP2,2016-08-25 14:07:00,
2016-08-25 10:12:00,74.1,71.9,29.96,West,269,0.0,5.0,93,0.00,,,0.24,WUHU216DAVISVP2,2016-08-25 14:12:00,
2016-08-25 10:17:00,74.2,72.3,29.96,SW,225,0.0,5.0,94,0.00,,,0.24,WUHU216DAVISVP2,2016-08-25 14:17:00,
2016-08-25 10:22:00,74.2,72.0,29.96,SW,218,5.0,5.0,93,0.00,,,0.24,WUHU216DAVISVP2,2016-08-25 14:22:00,
2016-08-25 10:27:00,74.1,71.9,29.97,WSW,249,0.0,6.0,93,0.00,,,0.24,WUHU216DAVISVP2,2016-08-25 14:27:00,
2016-08-25 10:32:00,74.1,72.2,29.97,WSW,253,0.0,7.0,94,0.00,,,0.24,WUHU216DAVISVP2,2016-08-25 14:32:00,
2016-08-25 10:37:00,74.0,72.1,29.97,West,271,0.0,7.0,94,0.00,,,0.24,WUHU216DAVISVP2,2016-08-25 14:37:00,